Location: Im Fang
(46.6019°N, 7.2397°E)
Time: 17:07:17
(UTC+00:00)

Cosmos 1933 Rocket - Pass Details

Date: 08 December 2019
Orbit: 607 x 629 km, 82.5° (Epoch: 29 January)

Event Time Altitude Azimuth Distance (km) Brightness Sun altitude
Rises 04:41:36 0° 192° (SSW) 2,853 6.9 -23.2°
Reaches altitude 10° 04:43:48 10° 194° (SSW) 1,954 6.1 -22.8°
Maximum altitude 04:48:08 75° 280° (W) 634 3.3 -22.1°
Drops below altitude 10° 04:52:29 10° 6° (N) 1,974 6.1 -21.3°
Sets 04:54:44 0° 8° (N) 2,885 7.0 -20.9°
